Kvb Empire — PD5101 — position and weather

sailwx.info

Track history (hours):
 
Tides and Currents Weather Stations Pressure Air Temp Water Temp Dewpoint Dewpoint Depression Visibility Wind Speed Wind Dir Waves Ship Positions

Kvb Empire

Last reported at 2017-Feb-26 14:31 UTC. Time now 2017-Feb-26 14:47 UTC.
Position N 50°58' E 006°60'.

Length 183 m; draft 2.7 m.

Type: Ship. MMSI: 244670090.

Date/timePositionNaut miles runAvg speedWind from/ knotsBaromVisibWave heightAir tempDewpointWater temp
2017-Feb-26 14:31N 50°58' E 006°60'8 7.6
2017-Feb-26 13:32N 50°51' E 006°59'1110.1
2017-Feb-26 12:25N 50°42' E 007°10'  
2017-Feb-23 19:26N 50°42' E 007°10'4 4.8
2017-Feb-23 18:31N 50°45' E 007°06'5 4.7
2017-Feb-23 17:33N 50°49' E 007°02'3 2.8
2017-Feb-23 16:30N 50°52' E 007°01'2 2.3
2017-Feb-23 15:33N 50°54' E 006°60'5 4.4
2017-Feb-23 14:30N 50°59' E 006°60'12 3.9
2017-Feb-23 11:19N 51°10' E 006°51'2 2.9
2017-Feb-23 10:33N 51°09' E 006°48'4 3.5
2017-Feb-23 09:33N 51°12' E 006°44'3 2.7
2017-Feb-23 08:33N 51°15' E 006°46'8 3.6
2017-Feb-23 06:15N 51°22' E 006°40'3 4.9
2017-Feb-23 05:33N 51°24' E 006°45'4 4.5
2017-Feb-23 04:33N 51°28' E 006°43'3 3.0
2017-Feb-23 03:33N 51°31' E 006°43'4 4.3
2017-Feb-23 02:31N 51°34' E 006°39'4 3.9
2017-Feb-23 01:31N 51°38' E 006°36'5 4.9
2017-Feb-23 00:33N 51°40' E 006°29'5 5.0
2017-Feb-22 23:33N 51°44' E 006°25'5 5.4
2017-Feb-22 22:33N 51°48' E 006°19'6 6.1
2017-Feb-22 21:33N 51°51' E 006°10'5 5.0
2017-Feb-22 20:33N 51°52' E 006°02'4 3.9
2017-Feb-22 19:33N 51°52' E 005°56'5 5.3
2017-Feb-22 18:33N 51°53' E 005°47'7 6.6
2017-Feb-22 17:33N 51°54' E 005°37'7 6.5
2017-Feb-22 16:29N 51°52' E 005°26'5 5.7
2017-Feb-22 15:33N 51°49' E 005°20'9 6.8
2017-Feb-22 14:16N 51°50' E 005°06'5 6.6
2017-Feb-22 13:33N 51°50' E 004°58'8 7.9
2017-Feb-22 12:33N 51°49' E 004°45'4 4.1
2017-Feb-22 11:34N 51°48' E 004°39'8 7.7
2017-Feb-22 10:33N 51°50' E 004°27'10 9.9
2017-Feb-22 09:33N 51°54' E 004°12'6 6.3
2017-Feb-22 08:33N 51°56' E 004°02'0 0.2
2017-Feb-22 07:33N 51°56' E 004°02'0 0.0
2017-Feb-22 06:33N 51°56' E 004°02'0 0.0
2017-Feb-22 05:33N 51°56' E 004°02'0 0.1
2017-Feb-22 04:33N 51°56' E 004°02'0 0.0
2017-Feb-22 03:33N 51°56' E 004°02'0 0.0
2017-Feb-22 02:33N 51°56' E 004°02'0 0.0
2017-Feb-22 01:33N 51°56' E 004°02'0 0.0
2017-Feb-22 00:33N 51°56' E 004°02'0 0.0
2017-Feb-21 23:33N 51°56' E 004°02'0 0.0
2017-Feb-21 22:33N 51°56' E 004°02'0 0.0
2017-Feb-21 21:33N 51°56' E 004°02'0 0.0
2017-Feb-21 20:33N 51°56' E 004°02'0 0.0
2017-Feb-21 19:33N 51°56' E 004°02'0 0.0
2017-Feb-21 18:33N 51°56' E 004°02'0 0.0
2017-Feb-21 17:33N 51°56' E 004°02'0 0.0
2017-Feb-21 16:33N 51°56' E 004°02'0 0.0
2017-Feb-21 15:33N 51°56' E 004°02'1 0.6
2017-Feb-21 14:33N 51°56' E 004°03'0 0.0
2017-Feb-21 13:33N 51°56' E 004°03'6 5.7
2017-Feb-21 12:34N 51°55' E 004°12'5 5.3
2017-Feb-21 11:33N 51°53' E 004°20'1 1.1
2017-Feb-21 10:33N 51°54' E 004°20'0 0.0
2017-Feb-21 09:33N 51°54' E 004°20'0 0.0
2017-Feb-21 08:33N 51°54' E 004°20'0 0.0
2017-Feb-21 07:33N 51°54' E 004°20'0 0.0
2017-Feb-21 06:33N 51°54' E 004°20'0 0.0
2017-Feb-21 05:33N 51°54' E 004°20'0 0.0
2017-Feb-21 03:33N 51°54' E 004°20'0 0.0
2017-Feb-21 02:34N 51°54' E 004°20'0 0.0
2017-Feb-21 01:33N 51°54' E 004°20'0 0.0
2017-Feb-21 00:33N 51°54' E 004°20'0 0.0
2017-Feb-20 23:33N 51°54' E 004°20'0 0.0
2017-Feb-20 22:33N 51°54' E 004°20'0 0.0
2017-Feb-20 21:33N 51°54' E 004°20'0 0.0
2017-Feb-20 19:33N 51°54' E 004°20'0 0.0
2017-Feb-20 18:34N 51°54' E 004°20'0 0.0
2017-Feb-20 17:34N 51°54' E 004°20'0 0.0
2017-Feb-20 16:33N 51°54' E 004°20'0 0.0
2017-Feb-20 15:33N 51°54' E 004°20'0 0.0
2017-Feb-20 14:33N 51°54' E 004°20'0 0.0
2017-Feb-20 13:33N 51°54' E 004°20'0 0.0
2017-Feb-20 12:33N 51°54' E 004°20'0 0.0
2017-Feb-20 11:33N 51°54' E 004°20'1 1.5
2017-Feb-20 10:33N 51°54' E 004°22'6 5.6
2017-Feb-20 09:33N 51°54' E 004°32'6 5.8
2017-Feb-20 08:33N 51°51' E 004°40'5 5.4
2017-Feb-20 07:33N 51°49' E 004°48'7 7.1
2017-Feb-20 06:33N 51°49' E 004°59'14 7.1
2017-Feb-20 04:33N 51°49' E 005°22'9 7.4
2017-Feb-20 03:22N 51°54' E 005°34'7 8.2
2017-Feb-20 02:33N 51°53' E 005°44'7 7.1
2017-Feb-20 01:34N 51°52' E 005°56'6 6.4
2017-Feb-20 00:34N 51°51' E 006°06'8 8.2
2017-Feb-19 23:33N 51°48' E 006°18'7 6.7
2017-Feb-19 22:33N 51°43' E 006°25'8 7.6
2017-Feb-19 21:34N 51°39' E 006°36'6 5.8
2017-Feb-19 20:31N 51°34' E 006°41'19 6.1
2017-Feb-19 17:24N 51°15' E 006°44'4 5.2
2017-Feb-19 16:33N 51°11' E 006°44'14 5.8
2017-Feb-19 14:14N 51°00' E 006°58'5 6.8
2017-Feb-19 13:33N 50°55' E 006°58'6 5.6
2017-Feb-19 12:30N 50°50' E 006°59'111 2.4
2017-Feb-17 14:33N 49°13' E 008°23'  
Track history (hours):
 
Tides and Currents Weather Stations Pressure Air Temp Water Temp Dewpoint Dewpoint Depression Visibility Wind Speed Wind Dir Waves Ship Positions

Kvb Empire

Last reported at 2017-Feb-26 14:31 UTC. Time now 2017-Feb-26 14:47 UTC.
Position N 50°58' E 006°60'.

Length 183 m; draft 2.7 m.

Type: Ship. MMSI: 244670090.

Date/timePositionNaut miles runAvg speedWind from/ knotsBaromVisibWave heightAir tempDewpointWater temp
2017-Feb-26 14:31N 50°58' E 006°60'8 7.6
2017-Feb-26 13:32N 50°51' E 006°59'1110.1
2017-Feb-26 12:25N 50°42' E 007°10'  
2017-Feb-23 19:26N 50°42' E 007°10'4 4.8
2017-Feb-23 18:31N 50°45' E 007°06'5 4.7
2017-Feb-23 17:33N 50°49' E 007°02'3 2.8
2017-Feb-23 16:30N 50°52' E 007°01'2 2.3
2017-Feb-23 15:33N 50°54' E 006°60'5 4.4
2017-Feb-23 14:30N 50°59' E 006°60'12 3.9
2017-Feb-23 11:19N 51°10' E 006°51'2 2.9
2017-Feb-23 10:33N 51°09' E 006°48'4 3.5
2017-Feb-23 09:33N 51°12' E 006°44'3 2.7
2017-Feb-23 08:33N 51°15' E 006°46'8 3.6
2017-Feb-23 06:15N 51°22' E 006°40'3 4.9
2017-Feb-23 05:33N 51°24' E 006°45'4 4.5
2017-Feb-23 04:33N 51°28' E 006°43'3 3.0
2017-Feb-23 03:33N 51°31' E 006°43'4 4.3
2017-Feb-23 02:31N 51°34' E 006°39'4 3.9
2017-Feb-23 01:31N 51°38' E 006°36'5 4.9
2017-Feb-23 00:33N 51°40' E 006°29'5 5.0
2017-Feb-22 23:33N 51°44' E 006°25'5 5.4
2017-Feb-22 22:33N 51°48' E 006°19'6 6.1
2017-Feb-22 21:33N 51°51' E 006°10'5 5.0
2017-Feb-22 20:33N 51°52' E 006°02'4 3.9
2017-Feb-22 19:33N 51°52' E 005°56'5 5.3
2017-Feb-22 18:33N 51°53' E 005°47'7 6.6
2017-Feb-22 17:33N 51°54' E 005°37'7 6.5
2017-Feb-22 16:29N 51°52' E 005°26'5 5.7
2017-Feb-22 15:33N 51°49' E 005°20'9 6.8
2017-Feb-22 14:16N 51°50' E 005°06'5 6.6
2017-Feb-22 13:33N 51°50' E 004°58'8 7.9
2017-Feb-22 12:33N 51°49' E 004°45'4 4.1
2017-Feb-22 11:34N 51°48' E 004°39'8 7.7
2017-Feb-22 10:33N 51°50' E 004°27'10 9.9
2017-Feb-22 09:33N 51°54' E 004°12'6 6.3
2017-Feb-22 08:33N 51°56' E 004°02'0 0.2
2017-Feb-22 07:33N 51°56' E 004°02'0 0.0
2017-Feb-22 06:33N 51°56' E 004°02'0 0.0
2017-Feb-22 05:33N 51°56' E 004°02'0 0.1
2017-Feb-22 04:33N 51°56' E 004°02'0 0.0
2017-Feb-22 03:33N 51°56' E 004°02'0 0.0
2017-Feb-22 02:33N 51°56' E 004°02'0 0.0
2017-Feb-22 01:33N 51°56' E 004°02'0 0.0
2017-Feb-22 00:33N 51°56' E 004°02'0 0.0
2017-Feb-21 23:33N 51°56' E 004°02'0 0.0
2017-Feb-21 22:33N 51°56' E 004°02'0 0.0
2017-Feb-21 21:33N 51°56' E 004°02'0 0.0
2017-Feb-21 20:33N 51°56' E 004°02'0 0.0
2017-Feb-21 19:33N 51°56' E 004°02'0 0.0
2017-Feb-21 18:33N 51°56' E 004°02'0 0.0
2017-Feb-21 17:33N 51°56' E 004°02'0 0.0
2017-Feb-21 16:33N 51°56' E 004°02'0 0.0
2017-Feb-21 15:33N 51°56' E 004°02'1 0.6
2017-Feb-21 14:33N 51°56' E 004°03'0 0.0
2017-Feb-21 13:33N 51°56' E 004°03'6 5.7
2017-Feb-21 12:34N 51°55' E 004°12'5 5.3
2017-Feb-21 11:33N 51°53' E 004°20'1 1.1
2017-Feb-21 10:33N 51°54' E 004°20'0 0.0
2017-Feb-21 09:33N 51°54' E 004°20'0 0.0
2017-Feb-21 08:33N 51°54' E 004°20'0 0.0
2017-Feb-21 07:33N 51°54' E 004°20'0 0.0
2017-Feb-21 06:33N 51°54' E 004°20'0 0.0
2017-Feb-21 05:33N 51°54' E 004°20'0 0.0
2017-Feb-21 03:33N 51°54' E 004°20'0 0.0
2017-Feb-21 02:34N 51°54' E 004°20'0 0.0
2017-Feb-21 01:33N 51°54' E 004°20'0 0.0
2017-Feb-21 00:33N 51°54' E 004°20'0 0.0
2017-Feb-20 23:33N 51°54' E 004°20'0 0.0
2017-Feb-20 22:33N 51°54' E 004°20'0 0.0
2017-Feb-20 21:33N 51°54' E 004°20'0 0.0
2017-Feb-20 19:33N 51°54' E 004°20'0 0.0
2017-Feb-20 18:34N 51°54' E 004°20'0 0.0
2017-Feb-20 17:34N 51°54' E 004°20'0 0.0
2017-Feb-20 16:33N 51°54' E 004°20'0 0.0
2017-Feb-20 15:33N 51°54' E 004°20'0 0.0
2017-Feb-20 14:33N 51°54' E 004°20'0 0.0
2017-Feb-20 13:33N 51°54' E 004°20'0 0.0
2017-Feb-20 12:33N 51°54' E 004°20'0 0.0
2017-Feb-20 11:33N 51°54' E 004°20'1 1.5
2017-Feb-20 10:33N 51°54' E 004°22'6 5.6
2017-Feb-20 09:33N 51°54' E 004°32'6 5.8
2017-Feb-20 08:33N 51°51' E 004°40'5 5.4
2017-Feb-20 07:33N 51°49' E 004°48'7 7.1
2017-Feb-20 06:33N 51°49' E 004°59'14 7.1
2017-Feb-20 04:33N 51°49' E 005°22'9 7.4
2017-Feb-20 03:22N 51°54' E 005°34'7 8.2
2017-Feb-20 02:33N 51°53' E 005°44'7 7.1
2017-Feb-20 01:34N 51°52' E 005°56'6 6.4
2017-Feb-20 00:34N 51°51' E 006°06'8 8.2
2017-Feb-19 23:33N 51°48' E 006°18'7 6.7
2017-Feb-19 22:33N 51°43' E 006°25'8 7.6
2017-Feb-19 21:34N 51°39' E 006°36'6 5.8
2017-Feb-19 20:31N 51°34' E 006°41'19 6.1
2017-Feb-19 17:24N 51°15' E 006°44'4 5.2
2017-Feb-19 16:33N 51°11' E 006°44'14 5.8
2017-Feb-19 14:14N 51°00' E 006°58'5 6.8
2017-Feb-19 13:33N 50°55' E 006°58'6 5.6
2017-Feb-19 12:30N 50°50' E 006°59'111 2.4
2017-Feb-17 14:33N 49°13' E 008°23'  

Dump ship's entire track history